Location: Centerville
(32.8776°N, 96.6203°W)
Time: 12:07:18
(UTC+00:00)

Cosmos 1420 Rocket - Pass Details

Date: 17 June 2021
Orbit: 753 x 782 km, 74.0° (Epoch: 30 July)

Event Time Altitude Azimuth Distance (km) Brightness Sun altitude
Rises 02:13:33 0° 183° (S) 3,188 6.9 -7.4°
Reaches altitude 10° 02:15:56 10° 178° (S) 2,267 6.1 -7.8°
Maximum altitude 02:20:55 52° 103° (ESE) 931 4.1 -8.7°
Drops below altitude 10° 02:25:56 10° 28° (NNE) 2,287 6.6 -9.5°
Sets 02:28:21 0° 23° (NNE) 3,219 7.4 -9.9°
